Hourly Weather Roundup
Issued by NWS Central Illinois

Home | Current Version | Previous Version | Text Only | Print | Product List | Glossary On
Versions: 1 2 3 4 5 6 7 8 9 10 11 12 13 14 15 16 17 18 19 20 21 22 23 24 25 26 27 28 29 30 31 32 33 34 35 36 37 38 39 40 41 42 43 44 45 46 47 48 49 50
000
NZUS43 KILX 240910
HWRILX

AREA WEATHER ROUNDUP
NATIONAL WEATHER SERVICE, LINCOLN IL
400 AM CDT THU APR 24 2014


CITY           SKY/WX    TMP DP  RH WIND       PRES   REMARKS
BLOOMINGTON    CLOUDY    44  39  82 E7        30.00R
CHAMPAIGN      CLOUDY    50  39  66 E10       29.97S
DANVILLE       CLOUDY    51  35  55 E7        29.98S
DECATUR        MOCLDY    51  34  52 SE10      29.97R
FLORA          MOCLDY    49  37  63 SE8       29.97S
GALESBURG      CLOUDY    45  40  83 E9        29.92F
JACKSONVILLE   CLOUDY    49  35  59 E12       29.91F
LACON          CLOUDY    44  38  80 E12       29.99S
LAWRENCEVILLE  MOCLDY    48  37  65 E8        29.98F
LITCHFIELD     CLOUDY    52  34  50 SE9       29.91S
$$


CITY           SKY/WX    TMP DP  RH WIND       PRES   REMARKS
LINCOLN        MOCLDY    50  34  55 E5        29.96R
MACOMB         MOCLDY    45  34  66 E10       29.93S
MATTOON        MOCLDY    51  33  50 SE13      29.95S
MT CARMEL AP   CLOUDY    50  37  62 SE7       29.98F
OLNEY-NOBLE AP CLOUDY    50  34  53 SE7       29.97S
PARIS          MOCLDY    51  37  57 E5        29.99S
PEORIA         CLOUDY    50  39  66 E9        29.97R
PONTIAC        CLOUDY    45  39  81 E10       30.01R
RANTOUL        CLOUDY    53  35  51 E7        29.99S
ROBINSON       MOCLDY    48  39  71 SE8       29.99F
SPRINGFIELD    CLOUDY    51  34  52 SE10      29.94R
TAYLORVILLE    CLOUDY    50  34  53 SE8       29.93R
$$

...REGIONAL REPORTS...


CITY           SKY/WX    TMP DP  RH WIND       PRES   REMARKS
CHICAGO O`HARE CLOUDY    40  31  70 N8        30.08S WCI  34
KANKAKEE       CLOUDY    43  39  84 NE8       30.04S
MOLINE         CLOUDY    44  37  76 E16       29.92F
MOUNT VERNON   MOCLDY    54  30  40 SE9       29.95S
PITTSFIELD     MOCLDY    51  34  52 E9        29.88S
QUINCY         PTCLDY    51  34  52 SE10      29.85F
ROCKFORD       CLOUDY    39  31  72 E12       30.03F WCI  32
$$


CITY           SKY/WX    TMP DP  RH WIND       PRES   REMARKS
BURLINGTON     MOCLDY    50  33  52 E14       29.86F
CEDAR RAPIDS   CLOUDY    44  38  79 E17G24    29.82F
DES MOINES     LGT RAIN  50  41  71 SE15G22   29.69F
KIRKSVILLE     PTCLDY    53  37  54 SE15      29.75F
OTTUMWA        CLOUDY    51  34  52 SE20G25   29.74F
ST LOUIS       MOCLDY    55  33  43 SE13      29.88F
$$


CITY           SKY/WX    TMP DP  RH WIND       PRES   REMARKS
TERRE HAUTE    MOCLDY    51  35  54 SE7       30.00S
EVANSVILLE     MOCLDY    50  36  58 CALM      29.99S
INDIANAPOLIS   CLOUDY    51  32  48 SE12      30.02S
LAFAYETTE      CLOUDY    50  36  58 E9        30.03R
MADISON        LGT RAIN  36  30  79 E14       30.02F WCI  27
MILWAUKEE      CLOUDY    39  28  64 NW3       30.10F
$$




USA.gov is the U.S. government's official web portal to all federal, state and local government web resources and services.